カタログに戻る

QIANFAN-63

運用中通信PO
NORAD 62793·PAYLOAD·🇨🇳 China

打ち上げ Jan 23, 2025 から Taiyuan Satellite Launch Center

Loading…

次のパス (今後24時間)

TLE

最新Source: Space-Track

元期: Sep 14, 2026, 13:52 UTC

1 62793U 25016J   26257.57801176  .00000024  00000-0  19205-4 0  9995
2 62793  88.9669  74.4225 0014280 272.1123  87.8393 13.51022740 84513

AllMySatでQIANFAN-63をリアルタイム追跡

Download on the App Store